TimeCDT,TemperatureF,Dew PointF,Humidity,Sea Level PressureIn,VisibilityMPH,Wind Direction,Wind SpeedMPH,Gust SpeedMPH,PrecipitationIn,Events,Conditions,WindDirDegrees,DateUTC
12:55 AM,62.6,60.8,94,30.03,10.0,SSE,8.1,-,N/A,,Clear,150,2012-10-13 05:55:00
1:35 AM,62.6,60.8,94,30.02,7.0,SSE,6.9,-,N/A,,Mostly Cloudy,150,2012-10-13 06:35:00
1:55 AM,62.6,60.8,94,30.01,7.0,SE,6.9,-,N/A,,Overcast,140,2012-10-13 06:55:00
2:15 AM,62.6,60.8,94,30.01,7.0,SSE,5.8,-,N/A,,Overcast,150,2012-10-13 07:15:00
2:35 AM,62.6,62.6,100,30.01,5.0,SSE,5.8,-,N/A,,Overcast,150,2012-10-13 07:35:00
2:55 AM,62.6,62.6,100,30.01,5.0,SSE,6.9,-,N/A,,Overcast,160,2012-10-13 07:55:00
3:15 AM,62.6,62.6,100,30.00,5.0,SSE,10.4,-,N/A,,Overcast,160,2012-10-13 08:15:00
3:35 AM,62.6,62.6,100,29.98,5.0,SSE,11.5,-,N/A,,Scattered Clouds,160,2012-10-13 08:35:00
3:55 AM,64.4,62.6,94,29.98,5.0,South,12.7,18.4,N/A,,Scattered Clouds,170,2012-10-13 08:55:00
4:15 AM,64.4,62.6,94,29.98,5.0,South,15.0,-,N/A,,Clear,180,2012-10-13 09:15:00
4:35 AM,64.4,62.6,94,29.97,7.0,South,15.0,21.9,N/A,,Scattered Clouds,170,2012-10-13 09:35:00
4:55 AM,64.4,62.6,94,29.97,7.0,South,18.4,23.0,N/A,,Scattered Clouds,180,2012-10-13 09:55:00
5:15 AM,64.4,62.6,94,29.97,7.0,South,16.1,23.0,N/A,,Scattered Clouds,180,2012-10-13 10:15:00
5:35 AM,64.4,62.6,94,29.97,7.0,South,16.1,-,N/A,,Clear,180,2012-10-13 10:35:00
5:55 AM,64.4,62.6,94,29.96,7.0,South,17.3,23.0,N/A,,Clear,180,2012-10-13 10:55:00
6:15 AM,64.4,62.6,94,29.95,7.0,South,17.3,23.0,N/A,,Clear,170,2012-10-13 11:15:00
6:35 AM,64.4,62.6,94,29.95,7.0,South,19.6,24.2,N/A,,Clear,180,2012-10-13 11:35:00
6:55 AM,64.4,62.6,94,29.94,7.0,South,19.6,23.0,N/A,,Clear,170,2012-10-13 11:55:00
7:15 AM,64.4,62.6,94,29.94,7.0,South,19.6,23.0,N/A,,Clear,170,2012-10-13 12:15:00
7:35 AM,64.4,62.6,94,29.95,7.0,South,16.1,21.9,N/A,,Clear,190,2012-10-13 12:35:00
7:55 AM,64.4,62.6,94,29.94,7.0,South,18.4,21.9,N/A,,Clear,180,2012-10-13 12:55:00
8:15 AM,64.4,62.6,94,29.95,7.0,South,17.3,21.9,N/A,,Scattered Clouds,180,2012-10-13 13:15:00
8:55 AM,66.2,62.6,88,29.94,7.0,South,19.6,25.3,N/A,Thunderstorm,Overcast,180,2012-10-13 13:55:00
9:35 AM,66.2,62.6,88,29.92,7.0,South,15.0,23.0,N/A,,Overcast,170,2012-10-13 14:35:00
9:55 AM,68.0,64.4,88,29.92,7.0,South,15.0,-,N/A,Thunderstorm,Thunderstorm,190,2012-10-13 14:55:00
10:35 AM,68.0,64.4,88,29.92,4.0,South,13.8,-,N/A,Rain-Thunderstorm,Thunderstorms and Rain,190,2012-10-13 15:35:00
10:55 AM,68.0,64.4,88,29.90,7.0,South,8.1,-,N/A,Thunderstorm,Unknown,170,2012-10-13 15:55:00
11:15 AM,68.0,64.4,88,29.89,5.0,South,17.3,21.9,N/A,Rain-Thunderstorm,Rain,170,2012-10-13 16:15:00
11:35 AM,68.0,64.4,88,29.90,4.0,South,17.3,26.5,N/A,Rain-Thunderstorm,Heavy Thunderstorms and Rain,190,2012-10-13 16:35:00
11:55 AM,68.0,64.4,88,29.90,7.0,SW,5.8,-,N/A,Rain-Thunderstorm,Light Thunderstorms and Rain,220,2012-10-13 16:55:00
12:15 PM,68.0,64.4,88,29.89,3.0,South,8.1,-,N/A,Rain-Thunderstorm,Light Thunderstorms and Rain,180,2012-10-13 17:15:00
12:35 PM,68.0,64.4,88,29.87,5.0,South,9.2,-,N/A,Thunderstorm,Overcast,170,2012-10-13 17:35:00
12:55 PM,68.0,66.2,94,29.86,7.0,South,10.4,-,N/A,Rain-Thunderstorm,Light Thunderstorms and Rain,170,2012-10-13 17:55:00
1:15 PM,69.8,66.2,88,29.85,5.0,South,10.4,-,N/A,Thunderstorm,Overcast,170,2012-10-13 18:15:00
1:35 PM,68.0,66.2,94,29.83,3.0,SSE,10.4,-,N/A,Rain-Thunderstorm,Heavy Thunderstorms and Rain,160,2012-10-13 18:35:00
1:55 PM,68.0,66.2,94,29.81,5.0,SSE,9.2,-,N/A,Rain-Thunderstorm,Light Thunderstorms and Rain,150,2012-10-13 18:55:00
2:15 PM,69.8,66.2,88,29.80,7.0,South,17.3,-,N/A,Thunderstorm,Thunderstorm,170,2012-10-13 19:15:00
2:35 PM,69.8,68.0,94,29.80,7.0,South,13.8,-,N/A,Thunderstorm,Unknown,170,2012-10-13 19:35:00
2:55 PM,69.8,68.0,94,29.79,7.0,South,15.0,21.9,N/A,Rain-Thunderstorm,Light Thunderstorms and Rain,180,2012-10-13 19:55:00
3:35 PM,69.8,68.0,94,29.75,4.0,South,17.3,24.2,N/A,Rain-Thunderstorm,Thunderstorms and Rain,180,2012-10-13 20:35:00
3:55 PM,71.6,68.0,88,29.74,7.0,South,18.4,23.0,N/A,,Scattered Clouds,170,2012-10-13 20:55:00
4:15 PM,71.6,68.0,88,29.75,7.0,South,20.7,26.5,N/A,,Scattered Clouds,170,2012-10-13 21:15:00
4:35 PM,71.6,68.0,88,29.73,10.0,South,20.7,-,N/A,,Scattered Clouds,170,2012-10-13 21:35:00
4:55 PM,71.6,68.0,88,29.72,10.0,South,19.6,24.2,N/A,,Scattered Clouds,170,2012-10-13 21:55:00
5:15 PM,71.6,68.0,88,29.71,10.0,SSE,18.4,25.3,N/A,Thunderstorm,Mostly Cloudy,160,2012-10-13 22:15:00
5:35 PM,69.8,66.2,88,29.78,1.5,South,39.1,49.5,N/A,Rain-Thunderstorm,Heavy Thunderstorms and Rain,190,2012-10-13 22:35:00
5:55 PM,64.4,62.6,94,-9999,4.0,SSW,17.3,23.0,N/A,Rain-Thunderstorm,Heavy Thunderstorms and Rain,200,2012-10-13 22:55:00
6:15 PM,64.4,62.6,94,29.68,10.0,SSE,24.2,-,N/A,Rain-Thunderstorm,Light Thunderstorms and Rain,150,2012-10-13 23:15:00
6:35 PM,64.4,62.6,94,29.64,10.0,SE,20.7,28.8,N/A,Rain-Thunderstorm,Light Thunderstorms and Rain,140,2012-10-13 23:35:00
7:35 PM,62.6,62.6,100,29.70,10.0,SSE,19.6,27.6,N/A,Rain-Thunderstorm,Light Thunderstorms and Rain,160,2012-10-14 00:35:00
7:55 PM,62.6,60.8,94,29.72,10.0,South,15.0,-,N/A,,Mostly Cloudy,170,2012-10-14 00:55:00
8:35 PM,64.4,62.6,94,29.70,10.0,SSW,12.7,-,N/A,,Mostly Cloudy,200,2012-10-14 01:35:00
9:15 PM,64.4,62.6,94,29.68,10.0,South,10.4,-,N/A,,Scattered Clouds,190,2012-10-14 02:15:00
9:35 PM,64.4,62.6,94,29.69,10.0,SSW,5.8,-,N/A,,Scattered Clouds,200,2012-10-14 02:35:00
9:55 PM,64.4,62.6,94,29.69,10.0,South,5.8,-,N/A,Thunderstorm,Scattered Clouds,180,2012-10-14 02:55:00
10:15 PM,64.4,62.6,94,29.70,10.0,South,6.9,-,N/A,,Mostly Cloudy,180,2012-10-14 03:15:00
11:15 PM,64.4,62.6,94,29.66,10.0,South,8.1,-,N/A,,Clear,180,2012-10-14 04:15:00
11:35 PM,62.6,60.8,94,29.65,10.0,South,6.9,-,N/A,,Clear,170,2012-10-14 04:35:00
11:55 PM,62.6,62.6,100,29.66,10.0,South,8.1,-,N/A,,Clear,180,2012-10-14 04:55:00